Madison, MN

6:27 PM CST on February 24, 2018 (GMT -0600)
Madison-Lac Qui Parle County

Weather History for KDXX - February, 2013

Change the Weather History Date:

Sunday, February 10, 2013

  Actual Average (KAQP) Record (KAQP)
Temperature  
Mean Temperature 30 °F -  
Max Temperature 32 °F 23 °F 53 °F (2017)
Min Temperature 28 °F 7 °F -23 °F (2011)
Degree Days  
Heating Degree Days 35    
Moisture  
Dew Point 27 °F    
Average Humidity 92    
Maximum Humidity 100    
Minimum Humidity 86    
Precipitation  
Precipitation 0.07 in - - ()
Sea Level Pressure  
Sea Level Pressure 29.54 in    
Wind  
Wind Speed 17 mph (East)    
Max Wind Speed 21 mph    
Max Gust Speed 24 mph    
Visibility 2 miles    
Events Snow    
Averages and records for this station are not official NWS values.
T = Trace of Precipitation, MM = Missing Value Source: NWS Daily Summary

Daily Weather History Graph

Daily Weather History Graph

Search for Another Location

Airport or City:

Trip Planner

Search our weather history database for the weather conditions in past years. The results will help you decide how hot, cold, wet, or windy it might be!

Date:

Astronomy

Feb. 10, 2013 Rise Set
Actual Time 7:32 AM CST 5:46 PM CST
Civil Twilight 7:01 AM CST 6:16 PM CST
Nautical Twilight 6:27 AM CST 6:51 PM CST
Astronomical Twilight 5:53 AM CST 7:25 PM CST
Moon 7:19 AM CST (2/10) 6:42 PM CST (2/10)
Length of Visible Light 11h 14m
Length of Day
10h 13m
New Moon, 0% of the Moon is Illuminated
Feb 10
New Moon
Feb 17
First Quarter
Feb 25
Full
Mar 4
Last Quarter
Mar 11
New

Hourly Weather History & Observations

Time (CST) Temp. Windchill Dew Point Humidity Pressure Visibility Wind Dir Wind Speed Gust Speed Precip Events Conditions
12:13 AM 32.0 °F 20.8 °F 30.2 °F 93% 29.76 in 4.0 mi SE 17.3 mph - 0.01 in   Mostly Cloudy
12:34 AM 32.0 °F 21.2 °F 28.4 °F 87% 29.75 in 4.0 mi ESE 16.1 mph - 0.01 in   Mostly Cloudy
12:54 AM 30.2 °F 18.1 °F 28.4 °F 93% 29.74 in 4.0 mi SE 18.4 mph - 0.01 in   Mostly Cloudy
1:13 AM 30.2 °F 18.1 °F 28.4 °F 93% 29.74 in 4.0 mi SE 18.4 mph - N/A   Mostly Cloudy
1:34 AM 30.2 °F 18.5 °F 28.4 °F 93% 29.74 in 4.0 mi SE 17.3 mph - N/A   Mostly Cloudy
1:54 AM 30.2 °F 17.8 °F 28.4 °F 93% 29.73 in 4.0 mi SE 19.6 mph - N/A   Mostly Cloudy
2:13 AM 30.2 °F 18.5 °F 26.6 °F 86% 29.72 in 4.0 mi SE 17.3 mph - N/A   Mostly Cloudy
2:34 AM 30.2 °F 18.5 °F 26.6 °F 86% 29.70 in 3.0 mi ESE 17.3 mph - N/A Snow Light Snow
2:54 AM 30.2 °F 18.5 °F 26.6 °F 86% 29.68 in 3.0 mi ESE 17.3 mph - N/A Snow Light Snow
3:13 AM 30.2 °F 18.9 °F 26.6 °F 86% 29.65 in 5.0 mi ESE 16.1 mph - N/A   Overcast
3:34 AM 28.4 °F 17.0 °F 26.6 °F 93% 29.67 in 3.0 mi ESE 15.0 mph - N/A Snow Light Snow
3:54 AM 28.4 °F 16.2 °F 26.6 °F 93% 29.65 in 2.0 mi East 17.3 mph - 0.01 in Snow Light Snow
4:13 AM 28.4 °F 16.6 °F 26.6 °F 93% 29.64 in 2.5 mi ESE 16.1 mph - 0.01 in Snow Light Snow
4:34 AM 28.4 °F 17.0 °F 26.6 °F 93% 29.63 in 2.5 mi East 15.0 mph - 0.01 in Snow Light Snow
4:54 AM 28.4 °F 16.6 °F 26.6 °F 93% 29.63 in 4.0 mi ESE 16.1 mph - 0.01 in   Overcast
5:13 AM 28.4 °F 16.6 °F 26.6 °F 93% 29.61 in 2.5 mi East 16.1 mph - N/A Snow Light Snow
5:34 AM 30.2 °F 18.5 °F 28.4 °F 93% 29.57 in 1.5 mi East 17.3 mph - N/A Snow Light Snow
5:54 AM 28.4 °F 17.0 °F 28.4 °F 100% 29.56 in 1.5 mi East 15.0 mph - N/A Snow Light Snow
6:13 AM 30.2 °F 18.9 °F 28.4 °F 93% 29.56 in 2.0 mi East 16.1 mph - 0.01 in Snow Light Snow
6:34 AM 30.2 °F 18.5 °F 28.4 °F 93% 29.55 in 1.8 mi East 17.3 mph - 0.02 in Snow Light Snow
6:54 AM 30.2 °F 18.9 °F 28.4 °F 93% 29.53 in 1.5 mi East 16.1 mph - 0.02 in Snow Light Snow
7:13 AM 30.2 °F 18.5 °F 28.4 °F 93% 29.52 in 2.0 mi East 17.3 mph - N/A Snow Light Snow
7:34 AM 30.2 °F 18.9 °F 28.4 °F 93% 29.53 in 0.8 mi East 16.1 mph - N/A Snow Snow
7:54 AM 28.4 °F 16.2 °F 26.6 °F 93% 29.51 in 0.8 mi ENE 17.3 mph - 0.01 in Snow Light Snow
8:13 AM 28.4 °F 16.2 °F 26.6 °F 93% 29.52 in 0.8 mi East 17.3 mph - N/A Snow Light Snow
8:34 AM 28.4 °F 16.2 °F 26.6 °F 93% 29.51 in 0.5 mi ENE 17.3 mph - N/A Snow Light Snow
8:54 AM 28.4 °F 16.6 °F 26.6 °F 93% 29.50 in 0.2 mi ENE 16.1 mph - 0.01 in Snow Snow
9:13 AM 28.4 °F 16.6 °F 26.6 °F 93% 29.48 in 0.5 mi ENE 16.1 mph - N/A Snow Light Snow
9:34 AM 28.4 °F 15.8 °F 26.6 °F 93% 29.48 in 0.5 mi ENE 18.4 mph - N/A Snow Snow
9:54 AM 28.4 °F 15.8 °F 26.6 °F 93% 29.47 in - ENE 18.4 mph - N/A   Overcast
10:13 AM 28.4 °F 15.1 °F 26.6 °F 93% 29.46 in 1.2 mi ENE 20.7 mph - N/A Snow Light Snow
10:34 AM 28.4 °F 16.2 °F 26.6 °F 93% 29.45 in 1.8 mi ENE 17.3 mph - N/A Snow Light Snow
10:54 AM 28.4 °F 15.8 °F 26.6 °F 93% 29.44 in - ENE 18.4 mph - N/A   Mostly Cloudy
11:13 AM 28.4 °F 16.2 °F 26.6 °F 93% 29.42 in - NE 17.3 mph - N/A   Overcast
11:34 AM 28.4 °F 15.8 °F 26.6 °F 93% 29.41 in - NE 18.4 mph - N/A   Overcast
11:53 AM 28.4 °F 15.1 °F 26.6 °F 93% 29.39 in - NE 20.7 mph - N/A   Overcast
12:14 PM 28.4 °F 16.2 °F 26.6 °F 93% 29.38 in - NE 17.3 mph 24.2 mph N/A   Overcast
12:33 PM 28.4 °F 15.4 °F 26.6 °F 93% 29.37 in - NE 19.6 mph - N/A   Overcast
12:54 PM 28.4 °F 15.4 °F 24.8 °F 86% 29.36 in - NE 19.6 mph - N/A   Overcast
1:14 PM 28.4 °F 16.2 °F 24.8 °F 86% 29.35 in - NE 17.3 mph - N/A   Unknown
1:34 PM 28.4 °F 15.8 °F 24.8 °F 86% 29.35 in - NE 18.4 mph - N/A   Overcast
1:53 PM 28.4 °F 16.2 °F 24.8 °F 86% 29.34 in - NE 17.3 mph - N/A   Mostly Cloudy
1:54 PM 28.4 °F 16.2 °F 24.8 °F 86% 29.34 in - NE 17.3 mph - N/A   Mostly Cloudy